Regional Weather Roundup
Issued by NWS Kansas City/Pleasant Hill, MO

Home | Current Version | Previous Version | Text Only | Print | Product List | Glossary On
Versions: 1 2 3 4 5 6 7 8 9 10 11 12 13 14 15 16 17 18 19 20 21 22 23 24 25 26 27 28 29 30 31 32 33 34 35 36 37 38 39 40 41 42 43 44 45 46 47 48 49 50
000
ASUS43 KEAX 022210
RWREAX

WEATHER ROUNDUP FOR EASTERN KANSAS AND NORTHWEST MISSOURI
NATIONAL WEATHER SERVICE KANSAS CITY/PLEASANT HILL MO
500 PM CDT MON MAY 02 2016

KSZ040-057-103>105-MOZ028-029-037-043-022300-
...KANSAS CITY METROPOLITAN AREA...

CITY           SKY/WX    TMP DP  RH WIND       PRES   REMARKS
K.C. INTL      CLOUDY    55  46  71 S3        30.07F
K.C. DOWNTOWN  CLOUDY    56  45  66 CALM      30.07F
LEES SUMMIT    CLOUDY    54  47  77 CALM      30.08S
OLATHE - IXD   CLOUDY    54  46  74 NW5       30.08F
OLATHE - OJC   CLOUDY    52  46  80 NW3       30.08S
LAWRENCE       CLOUDY    56  45  66 CALM      30.08F

$$

MOZ001>008-011>017-020>025-030>033-038>040-044>046-053-054-022300-
...NORTHERN AND CENTRAL MISSOURI...

CITY           SKY/WX    TMP DP  RH WIND       PRES   REMARKS
ST. JOSEPH     CLOUDY    60  42  51 CALM      30.06F
MOSBY          CLOUDY    55  45  67 SW5       30.07S
WARRENSBURG    CLOUDY    54  46  76 W3        30.07F
WHITEMAN AFB   NOT AVBL
CLINTON        CLOUDY    55  45  67 CALM      30.07F
SEDALIA        LGT RAIN  53  49  86 N6        30.07S FOG
WARSAW         NOT AVBL
CHILLICOTHE      N/A     60  41  49 NE7       30.06S
KIRKSVILLE     CLOUDY    55  46  71 CALM      30.05F

$$

MOZ041-047>049-056>058-063>065-088>090-097-022300-
...EASTERN AND SOUTHERN MISSOURI...

CITY           SKY/WX    TMP DP  RH WIND       PRES   REMARKS
ST. LOUIS INTL CLOUDY    57  48  72 NW5       30.03S
SPIRIT OF STL  CLOUDY    56  50  80 W5        30.03S
COLUMBIA       CLOUDY    54  48  80 NW6       30.05F
JEFFERSON CITY CLOUDY    52  48  86 CALM      30.06S
ROLLA          CLOUDY    53  46  77 NW6       30.03S
OSAGE BEACH    CLOUDY    54  39  58 NW5       30.06S
SPRINGFIELD    CLOUDY    53  44  71 NW10      30.06F
BRANSON        CLOUDY    54  48  82 NW6       30.06F
JOPLIN         CLOUDY    56  45  66 NE6       30.08F
WEST PLAINS    CLOUDY    60  45  57 NW8       30.03F

$$

IAZ060-094-KSZ022-034>040-054-083-096-NEZ052-066-093-022300-
...KANSAS...SOUTHEAST NEBRASKA AND IOWA...

CITY           SKY/WX    TMP DP  RH WIND       PRES   REMARKS
TOPEKA         CLOUDY    58  43  57 N7        30.07F
MANHATTAN      PTSUNNY   64  38  38 VRB5      30.07F
EMPORIA        CLOUDY    60  42  51 NE10      30.07F
CHANUTE        CLOUDY    56  45  66 CALM      30.08F
WICHITA        PTSUNNY   63  40  42 NW12      30.08F
OMAHA          PTSUNNY   64  38  38 NW5       30.05F
LINCOLN        PTSUNNY   65  35  33 NE6       30.07F
FALLS CITY     SUNNY     62  40  44 CALM      30.06F
LAMONI         CLOUDY    59  43  55 NE6       30.05S
DES MOINES     LGT RAIN  60  37  42 E9        30.05S

$$




USA.gov is the U.S. government's official web portal to all federal, state and local government web resources and services.